Voltar ao catálogo

STARLINK-38095

AtivoComunicaçõesSSO
NORAD 100179·PAYLOAD·🇺🇸 United States

Lançado Aug 1, 2026 de Vandenberg Space Force Base

Loading…

Próximas Passagens (próximas 24 horas)

TLE

AtualizadoSource: Space-Track

Época: Sep 14, 2026, 08:02 UTC

1 A0179U 26175A   26257.33537387  .00142492  00000-0  93993-3 0  9997
2 A0179  97.2830  99.4333 0001039 166.9526 193.1766 15.75200477  8208

Acompanhe STARLINK-38095 em tempo real com AllMySat

Download on the App Store